Location: Shades State Park
(39.9310°N, 87.0690°W)
Time: 03:08:59
(UTC-05:00)

Daily predictions for brighter satellites

Satellite Brightness Start Highest point End
(mag) Time Altitude Azimuth Time Altitude Azimuth Time Altitude Azimuth
CENTAUR R/B 4.2 04:11:32 28° ENE 04:11:32 28° ENE 04:15:04 10° NE
Cosmos 2333 Rocket 4.5 04:56:53 14° NNE 04:56:53 14° NNE 04:57:35 10° NNE
Cosmos 2278 Rocket 3.7 05:14:02 25° S 05:14:02 25° S 05:16:18 10° S
SL-16 R/B 2.2 05:17:22 71° SSE 05:17:47 75° ESE 05:23:28 10° NNE
Cosmos 292 Rocket 4.3 05:23:40 33° S 05:25:40 58° ESE 05:30:26 10° NNE
Cosmos 1812 4.0 05:28:27 40° E 05:28:27 40° E 05:31:58 10° SSE
Timation 1 Rocket 4.2 05:30:46 57° NNW 05:32:07 88° ENE 05:38:08 10° SSE
USA 215 3.1 05:31:41 10° NE 05:38:15 81° NW 05:40:47 41° WSW
Cosmos 1680 Rocket 3.3 05:38:54 45° SSW 05:40:33 84° WNW 05:45:48 10° NNE
SKYMED 2 4.4 05:40:28 10° SSE 05:44:39 49° ENE 05:47:40 18° N
Cosmos 2181 Rocket 4.0 05:42:26 39° NNW 05:44:41 60° W 05:50:54 10° S
Cosmos 2151 Rocket 3.7 05:40:17 10° S 05:44:47 75° E 05:49:17 10° N
TIMED 4.4 05:47:32 76° N 05:47:51 88° ENE 05:52:13 10° SSE
Cosmos 2237 Rocket 3.9 05:52:17 18° NNW 05:52:17 18° NNW 05:54:04 10° N
CZ-3 R/B 3.9 05:45:20 10° SW 05:53:55 19° S 05:58:04 10° SE
Feng Yun 1-1 Rocket 4.3 05:51:50 10° N 05:57:19 53° WNW 06:02:37 10° SW
Cosmos 2112 Rocket 3.9 05:54:15 10° SSW 05:59:25 66° WNW 06:04:37 10° NNE
CENTAUR R/B 2.9 05:58:46 39° WNW 05:59:36 41° NW 06:06:05 10° NNE
NOAA 6 3.9 05:55:17 10° N 06:00:25 81° WNW 06:05:33 10° SSW
Meteor 1-18 Rocket 4.2 05:58:48 13° NNW 06:04:08 69° W 06:10:00 10° S
Tiangong 2 1.6 06:05:56 51° NE 06:05:56 51° NE 06:08:34 10° ENE
Cosmos 1536 Rocket 3.4 06:06:16 21° NNW 06:09:15 78° W 06:13:38 10° S
Gbstr 26 Del rocket 3.4 06:08:43 42° WSW 06:09:24 45° SW 06:13:21 10° SSE
CSL-04 Rocket 4.4 06:05:43 10° NNE 06:11:11 55° E 06:16:33 10° S
Cosmos 1238 Rocket 3.5 06:08:45 27° NNW 06:11:16 57° W 06:16:48 10° S
Cosmos 1603 3.8 06:09:31 10° SSW 06:15:13 82° ESE 06:20:55 10° NNE
Lacrosse 5 rocket 3.8 06:19:05 10° N 06:19:05 10° N 06:19:15 10° N
Cosmos 2369 Rocket 3.6 06:13:48 10° N 06:19:02 35° ENE 06:24:13 10° SE
Meteor 1-20 Rocket 4.3 06:20:29 10° SSW 06:25:54 50° WNW 06:31:16 10° N
Okean 1 Rocket 3.2 06:23:02 10° S 06:27:27 78° E 06:31:50 10° N
PSLV R/B 3.2 06:29:19 38° WNW 06:30:29 82° N 06:33:52 10° E
COSMO-SKYMED 1 2.8 06:28:31 10° S 06:32:40 46° W 06:36:15 14° NNW
Lacrosse 5 2.4 06:27:57 10° SSW 06:32:58 62° SE 06:38:01 10° NE
Cosmos 921 Rocket 3.4 06:31:59 20° NW 06:34:41 44° W 06:38:57 10° S
Kosmos-1675 4.5 06:32:53 10° S 06:35:21 53° ESE 06:43:32 10° NE
Okean 1-7 Rocket 3.8 06:31:43 10° N 06:36:08 72° E 06:40:29 10° SSE
Nadezhda 3 Rocket 4.1 06:31:37 10° N 06:38:00 90° ENE 06:44:23 10° S
Cosmos 1943 3.8 06:37:00 10° S 06:42:31 62° ESE 06:48:05 10° NNE
Cosmos 2056 Rocket 3.4 06:37:33 10° NNW 06:42:43 73° WSW 06:47:47 10° S
Cosmos 192 4.2 06:40:42 10° SSW 06:45:35 74° WNW 06:50:31 10° NNE
Okean 1 4.2 06:45:17 16° NW 06:47:41 28° W 06:51:10 10° SSW
USA 129 1.3 06:45:57 10° S 06:47:52 74° WSW 06:49:06 21° NNW
Cosmos 44 Rocket 3.4 06:46:25 10° SSW 06:51:37 86° NW 06:56:46 10° NNE
Meteor 1-19 Rocket 4.3 06:47:13 10° NNW 06:53:05 75° W 06:58:50 10° S
Cosmos 2341 Rocket 4.0 06:47:52 10° S 06:54:11 82° W 07:00:28 10° N
Meteor 1-11 Rocket 3.8 06:49:04 10° SSW 06:54:54 68° W 07:00:41 10° N
Cosmos 962 Rocket 4.4 06:50:06 10° S 06:56:15 79° W 07:02:31 10° N
IDEFIX/ARIANE 42P 3.4 06:51:10 10° NNE 06:56:16 55° E 07:01:20 10° S
Cosmos 1624 Rocket 4.3 06:51:41 10° NNW 06:56:47 50° WSW 07:01:52 10° S
Cosmos 1300 Rocket 4.1 06:55:37 10° SW 06:59:41 35° WNW 07:03:45 10° N
Ariane Rocket 3.4 06:55:58 10° N 07:00:41 40° WNW 07:05:22 10° SW
Meteor 1-29 4.4 06:57:39 10° SE 07:00:49 38° ENE 07:03:58 10° N
SL-16 R/B 3.6 06:59:25 12° W 07:02:32 17° NW 07:06:14 10° N
Cosmos 1602 4.3 06:59:06 10° SW 07:02:44 35° WNW 07:06:25 10° N
ATLAS CENTAUR Rocket 4.0 06:58:58 10° WSW 07:05:26 23° SSW 07:08:49 10° SSE
Cosmos 1346 Rocket 4.1 07:04:27 10° NW 07:07:13 20° W 07:10:05 10° SW
GPS 2-05 Rocket1 4.2 07:06:04 10° WSW 07:09:20 33° S 07:12:39 10° SE
Cosmos 1943 Rocket 3.3 07:07:36 10° N 07:12:51 43° ENE 07:18:04 10° SE
SJ-12 3.9 07:11:03 10° N 07:15:14 75° WNW 07:19:22 10° SSW
CZ-4 R/B 1.3 07:11:37 10° N 07:15:32 62° WNW 07:19:23 10° SSW
Cosmos 2263 4.4 07:14:07 10° NNW 07:19:47 78° ENE 07:25:22 10° SSE
USA 215 4.1 07:15:08 10° NE 07:20:40 30° NNW 07:26:10 10° W
Cosmos 1455 Rocket 3.7 07:18:48 10° S 07:23:03 61° E 07:27:20 10° NNE
Lacrosse 4 Rocket 3.5 07:20:51 10° N 07:24:07 22° NE 07:27:18 10° ESE
Meteor 1-23 Rocket 4.2 07:18:37 10° NNW 07:24:07 65° W 07:29:36 10° S
